Location: Izdebno
(52.6670°N, 16.2170°E)
Time: 21:51:49
(UTC+02:00)

S-56A Canister/Altair - Pass Details

Date: 28 April 2024
Orbit: 638 x 2488 km, 38.9° (Epoch: 22 May)

Event Time Altitude Azimuth Distance (km) Brightness Sun altitude
Rises 16:33:55 0° 230° (SW) 2,941 11.5 32.2°
Reaches altitude 10° 16:36:48 10° 209° (SSW) 2,105 10.6 31.7°
Maximum altitude 16:39:51 17° 168° (SSE) 1,808 9.7 31.3°
Drops below altitude 10° 16:43:20 10° 128° (SE) 2,459 9.9 30.8°
Sets 16:47:07 0° 110° (ESE) 3,692 10.6 30.3°
